Location: Invercargill
(46.4000°S, 168.3500°E)
Time: 19:32:08
(UTC+12:00)

Lacrosse 5 - Pass Details

Date: 14 May 2021
Orbit: 715 x 724 km, 57.0° (Epoch: 09 June)

Event Time Altitude Azimuth Distance (km) Brightness Sun altitude
Rises 21:09:20 0° 238° (WSW) 3,158 6.0 -38.4°
Reaches altitude 10° 21:12:04 10° 251° (WSW) 2,229 5.1 -38.9°
Enters shadow 21:13:52 18° 267° (W) 1,732 4.4 -39.2°
